DW9727 Weather Reports


Display with metric or nautical units.
time (UTC)temp
F
wind
direction
speed
MPH
gust
MPH
rain 1hr
in
rain 24hr
in
rain mn
in
humidity
%
barometer
mb
20260905014710 88 63 0.0 3.0 0.00 0.00 0.00 69 1008.5
20260905013710 88 113 2.0 6.0 0.00 0.00 0.00 68 1008.4
20260905012711 89 118 3.0 6.0 0.00 0.00 0.00 67 1008.3
20260905011711 89 104 1.0 3.0 0.00 0.00 0.00 66 1008.4
20260905010711 90 172 1.0 2.0 0.00 0.00 0.00 65 1008.4
20260905005711 90 172 2.0 6.0 0.00 0.00 0.00 64 1008.5
20260905004710 91 148 2.0 3.0 0.00 0.00 0.00 62 1008.5
20260905001710 91 159 2.0 6.0 0.00 0.00 0.00 60 1008.4
20260905000711 92 132 3.0 5.0 0.00 0.00 0.00 58 1008.1
20260904235711 92 123 3.0 7.0 0.00 0.00 0.00 57 1008.0
20260904234711 93 151 5.0 10.0 0.00 0.00 0.00 57 1007.9
20260904232711 94 157 5.0 10.0 0.00 0.00 0.00 55 1007.9
20260904231711 94 178 4.0 7.0 0.00 0.00 0.00 55 1007.9
20260904230710 94 128 4.0 7.0 0.00 0.00 0.00 53 1008.1
20260904225711 93 161 5.0 9.0 0.00 0.00 0.00 55 1008.1
20260904224711 93 149 4.0 8.0 0.00 0.00 0.00 57 1008.1
20260904223710 93 160 1.0 5.0 0.00 0.00 0.00 57 1008.1
20260904222711 93 141 3.0 7.0 0.00 0.00 0.00 56 1008.1
20260904221711 93 168 5.0 9.0 0.00 0.00 0.00 55 1008.2
20260904220711 94 135 5.0 12.0 0.00 0.00 0.00 53 1008.1
20260904215711 95 165 7.0 13.0 0.00 0.00 0.00 52 1008.2
20260904214711 96 171 6.0 13.0 0.00 0.00 0.00 54 1008.1
20260904212710 95 167 6.0 12.0 0.00 0.00 0.00 53 1008.3
20260904211711 95 175 5.0 9.0 0.00 0.00 0.00 54 1008.5
20260904210711 95 119 7.0 12.0 0.00 0.00 0.00 54 1008.5
20260904205712 95 176 6.0 13.0 0.00 0.00 0.00 54 1008.4
20260904203710 94 103 6.0 12.0 0.00 0.00 0.00 56 1008.4
20260904202711 93 128 6.0 12.0 0.00 0.00 0.00 58 1008.7
20260904201711 92 161 4.0 9.0 0.00 0.00 0.00 57 1008.8
20260904200710 92 127 3.0 7.0 0.00 0.00 0.00 55 1008.6
20260904195710 92 82 2.0 8.0 0.00 0.00 0.00 55 1008.5
20260904193711 92 127 6.0 8.0 0.00 0.00 0.00 57 1008.7
20260904192710 92 168 6.0 9.0 0.00 0.00 0.00 60 1008.8
20260904191711 92 45 1.0 5.0 0.00 0.00 0.00 58 1008.9
20260904190710 92 154 2.0 6.0 0.00 0.00 0.00 58 1008.8
20260904185710 92 300 1.0 3.0 0.00 0.00 0.00 60 1009.1
20260904184710 91 151 2.0 7.0 0.00 0.00 0.00 61 1009.1
20260904183710 91 121 1.0 3.0 0.00 0.00 0.00 60 1009.1
20260904182710 90 115 1.0 3.0 0.00 0.00 0.00 64 1009.2
20260904181710 90 290 1.0 5.0 0.00 0.00 0.00 62 1009.3
20260904175710 89 219 3.0 6.0 0.00 0.00 0.00 61 1009.4
20260904174710 90 242 3.0 10.0 0.00 0.00 0.00 63 1009.5
20260904173711 89 165 5.0 12.0 0.00 0.00 0.00 65 1009.6
20260904172711 88 169 5.0 9.0 0.00 0.00 0.00 65 1009.7
20260904170710 87 213 5.0 9.0 0.00 0.00 0.00 66 1009.8
20260904165711 87 179 1.0 8.0 0.00 0.00 0.00 64 1009.5
20260904164711 87 255 4.0 7.0 0.00 0.00 0.00 65 1009.4
20260904163710 86 205 2.0 3.0 0.00 0.00 0.00 67 1009.4
20260904162710 86 215 2.0 6.0 0.00 0.00 0.00 67 1009.3
20260904161711 85 223 3.0 6.0 0.00 0.00 0.00 66 1009.4
20260904160711 85 209 2.0 5.0 0.00 0.00 0.00 69 1009.2
20260904155711 84 202 3.0 6.0 0.00 0.00 0.00 68 1009.3
20260904154711 84 253 1.0 2.0 0.00 0.00 0.00 67 1009.1
20260904153710 84 333 2.0 3.0 0.00 0.00 0.00 71 1009.3
20260904152710 83 250 0.0 3.0 0.00 0.00 0.00 71 1009.2
20260904151711 83 312 1.0 3.0 0.00 0.00 0.00 69 1009.1
20260904150710 82 199 2.0 3.0 0.00 0.00 0.00 71 1009.2
20260904144711 82 222 0.0 2.0 0.00 0.00 0.00 70 1009.3
20260904143710 81 332 2.0 3.0 0.00 0.00 0.00 73 1009.1
20260904142710 80 311 1.0 3.0 0.00 0.00 0.00 74 1009.0
20260904141710 79 298 2.0 3.0 0.00 0.00 0.00 76 1009.1
20260904140710 78 318 0.0 2.0 0.00 0.00 0.00 77 1009.1
20260904135710 78 292 0.0 0.0 0.00 0.00 0.00 78 1009.2
20260904134710 77 292 0.0 0.0 0.00 0.00 0.00 79 1009.0
20260904133710 75 292 0.0 0.0 0.00 0.00 0.00 83 1009.1
20260904130712 71 293 0.0 0.0 0.00 0.00 0.00 88 1008.8
20260904125710 70 293 0.0 0.0 0.00 0.00 0.00 89 1008.6
20260904124711 70 293 0.0 0.0 0.00 0.00 0.00 87 1008.5
20260904123712 69 293 0.0 0.0 0.00 0.00 0.00 87 1008.3
20260904120710 70 293 0.0 1.0 0.00 0.00 0.00 85 1008.0
20260904115711 70 293 0.0 0.0 0.00 0.00 0.00 85 1007.8
20260904114711 71 293 0.0 0.0 0.00 0.00 0.00 85 1007.8
20260904112710 71 283 2.0 2.0 0.00 0.00 0.00 83 1007.6
20260904111710 72 255 1.0 2.0 0.00 0.00 0.00 82 1007.6
20260904110710 73 217 0.0 0.0 0.00 0.00 0.00 81 1007.4
20260904105711 73 217 1.0 3.0 0.00 0.00 0.00 82 1007.3
20260904104711 73 209 2.0 3.0 0.00 0.00 0.00 81 1007.4
20260904103711 74 215 2.0 3.0 0.00 0.00 0.00 81 1007.3
20260904102710 74 208 2.0 3.0 0.00 0.00 0.00 80 1007.3
20260904101710 74 207 3.0 6.0 0.00 0.00 0.00 80 1007.3
20260904100710 74 217 3.0 5.0 0.00 0.00 0.00 80 1007.2
20260904095710 74 214 4.0 5.0 0.00 0.00 0.00 79 1007.0
20260904094711 74 214 3.0 5.0 0.00 0.00 0.00 79 1006.9
20260904093711 74 215 2.0 3.0 0.00 0.00 0.00 78 1006.8
20260904092711 75 223 2.0 3.0 0.00 0.00 0.00 78 1006.8
20260904091710 75 216 3.0 5.0 0.00 0.00 0.00 78 1006.8
20260904085710 76 209 2.0 3.0 0.00 0.00 0.00 76 1006.4
20260904084710 76 232 0.0 0.0 0.00 0.00 0.00 74 1006.2
20260904083710 76 232 0.0 0.0 0.00 0.00 0.00 74 1006.3
20260904082710 77 198 0.0 3.0 0.00 0.00 0.00 73 1006.1
20260904081711 77 212 2.0 8.0 0.00 0.00 0.00 73 1006.0
20260904080710 77 193 3.0 7.0 0.00 0.00 0.00 73 1006.0
20260904075710 77 215 5.0 8.0 0.00 0.00 0.00 72 1006.0
20260904074712 78 192 4.0 8.0 0.00 0.00 0.00 72 1006.0
20260904073710 78 195 6.0 12.0 0.00 0.00 0.00 71 1006.0
20260904072710 78 180 8.0 15.0 0.00 0.00 0.00 71 1006.0
20260904071711 78 169 8.0 14.0 0.00 0.00 0.00 70 1005.9
20260904070710 78 195 10.0 15.0 0.00 0.00 0.00 70 1006.1
20260904065710 78 164 8.0 14.0 0.00 0.00 0.00 70 1005.9
20260904064710 79 196 8.0 12.0 0.00 0.00 0.00 70 1006.0
20260904063711 79 205 7.0 12.0 0.00 0.00 0.00 70 1006.0
20260904062710 79 207 6.0 12.0 0.00 0.00 0.00 69 1005.9
20260904061711 79 209 8.0 12.0 0.00 0.00 0.00 69 1005.9
20260904060711 79 189 7.0 12.0 0.00 0.00 0.00 70 1005.8
20260904055711 79 171 7.0 12.0 0.00 0.00 0.00 70 1005.8
20260904053711 80 169 6.0 12.0 0.00 0.00 0.00 70 1005.6
20260904052710 80 198 5.0 8.0 0.00 0.00 0.00 70 1005.6
20260904050711 81 177 4.0 9.0 0.00 0.00 0.00 69 1005.6
20260904045711 81 182 3.0 7.0 0.00 0.00 0.00 69 1005.6
20260904044711 81 177 3.0 6.0 0.00 0.00 0.00 68 1005.7
20260904043710 82 194 2.0 6.0 0.00 0.00 0.00 68 1005.9
20260904042711 82 186 2.0 7.0 0.00 0.00 0.00 68 1005.8
20260904041710 83 171 1.0 3.0 0.00 0.00 0.00 67 1005.9
20260904040710 83 191 3.0 14.0 0.00 0.00 0.00 67 1005.8
20260904035711 83 198 5.0 9.0 0.00 0.00 0.00 66 1005.7
20260904033710 84 150 3.0 10.0 0.00 0.00 0.00 65 1005.7
20260904032710 85 178 3.0 8.0 0.00 0.00 0.00 65 1005.8
20260904031711 85 149 2.0 6.0 0.00 0.00 0.00 65 1005.7
20260904030711 85 159 2.0 5.0 0.00 0.00 0.00 65 1005.8
20260904025710 86 164 2.0 8.0 0.00 0.00 0.00 65 1005.6
20260904024711 86 142 1.0 5.0 0.00 0.00 0.00 65 1005.6
20260904021710 87 142 3.0 6.0 0.00 0.00 0.00 64 1005.4
20260904020710 87 150 1.0 3.0 0.00 0.00 0.00 64 1005.3